938  
ASUS46 KLOX 220814  
RWRCA  
 
SOUTHERN CALIFORNIA WEATHER ROUNDUP  
NATIONAL WEATHER SERVICE OXNARD CALIFORNIA  
100 AM PDT THU AUG 22 2019  
 
NOTE: "FAIR" INDICATES FEW OR NO CLOUDS BELOW 12,000 FEET WITH NO  
SIGNIFICANT WEATHER AND/OR S TO VISIBILITY
.  
 
- STATIONS PRECEEDED BY AN ASTERISK (*) ARE NOT NWS OR FAA  
STATIONS AND ARE NOT SUBJECT TO NWS AND FAA QUALITY CONTROL.
 
 
CAZ041-042-087-220900-  
LA AND ORANGE COUNTY COASTAL AREAS  
 
 
CITY SKY/WX TMP DP RH WIND PRES REMARKS
 
L.A. DOWNTOWN CLEAR 71 60 68 CALM 29.75F  
L.A. AIRPORT CLEAR 73 70 90 NE3 29.75F  
LONG BEACH CLEAR 70 64 81 S5 29.76S  
 
CITY SKY/WX TMP DP RH WIND PRES REMARKS
 
AVALON N/A 59 N/A N/A MISG N/A  
FULLERTON CLEAR 70 63 78 S5 29.75S  
HAWTHORNE CLEAR 70 62 76 CALM 29.76S  
*LEO CARRILLO N/A 67 56 68 NE5 N/A  
*LOS ALAMITOS FAIR 66 61 84 CALM 29.76S  
*REDONDO BEACH N/A 65 61 85 CALM 29.75S  
SANTA ANA CLEAR 69 64 84 S8 29.76S  
STA MONICA APT CLEAR 66 62 87 CALM 29.76F  
*UCLA N/A 66 55 68 CALM 29.72F  
 

 
 
CAZ547-548-048-220900-  
LA COUNTY VALLEYS AND INLAND EMPIRE  
 
 
CITY SKY/WX TMP DP RH WIND PRES REMARKS
 
BURBANK CLEAR 73 56 54 E3 29.76F  
VAN NUYS CLEAR 73 56 54 CALM 29.76F  
 
CITY SKY/WX TMP DP RH WIND PRES REMARKS
 
CORONA AIRPORT SUNNY 63 57 81 CALM N/A  
*CHATSWORTH N/A 71 51 48 CALM 29.76F  
CHINO CLEAR 66 55 67 CALM 29.78F  
*CLAREMONT N/A 68 45 42 CALM N/A  
MARCH AFB CLEAR 66 47 48 CALM 29.81F  
*NORTHRIDGE N/A 72 52 49 CALM N/A  
ONTARIO CLEAR 73 54 51 CALM 29.78F  
*PASADENA N/A 73 57 56 CALM N/A  
RIVERSIDE CLEAR 71 53 52 CALM 29.78F  
SAN BERNARDINO FAIR 74 54 49 CALM 29.80  
*SAN RAFAEL HI N/A 74 47 37 E7 N/A  
*SAUGUS N/A 72 48 42 E5 N/A  
*WHITEMAN AP NOT AVBL  
*WHITTIER HILL N/A 68 58 70 SE3 N/A  
*WOODLAND HILL N/A 68 52 56 CALM N/A  
 

 
 
CAZ054-055-220900-  
LA AND SAN BERNARDINO COUNTY MOUNTAINS  
 
 
CITY SKY/WX TMP DP RH WIND PRES REMARKS
 
*ACTON N/A 65 42 43 N7 N/A  
*BIG BEAR AIRP SUNNY 45 12 26 CALM 30.15F  
*BIG PINES N/A 67 -6 5 SW2 N/A  
*CHILAO N/A 71 24 17 CALM N/A  
SANDBERG CLEAR 68 31 25 VRB7 30.01F  
*WARM SPRINGS N/A 73 24 16 W28G39 N/A  
 

 
 
CAZ028-029-059-060-099-220900-  
ANTELOPE VALLEY AND SURROUNDING AREAS  
 
 
CITY SKY/WX TMP DP RH WIND PRES REMARKS
 
LANCASTER CLEAR 77 37 23 W17 29.84F  
PALMDALE CLEAR 69 39 33 CALM 29.87F  
*POPPY PARK N/A 75 29 18 W18G30 N/A  
 
CITY SKY/WX TMP DP RH WIND PRES REMARKS
 
29 PALMS CLEAR 83 39 21 W14 29.84F  
BARSTOW/DAGGET CLEAR 80 42 25 W15 29.78F  
BISHOP MOCLDY 67 38 34 N6 29.90S  
CHINA LAKE CLEAR 81 49 32 S14 29.75F  
EDWARDS AFB CLEAR 74 43 32 S12 29.80F  
MOJAVE CLEAR 77 45 31 NW12G22 29.84F  
NEEDLES CLEAR 93 22 7 W8 29.64F  
 

 
 
CAZ039-040-220900-  
VENTURA AND SANTA BARBARA COUNTY COAST  
 
 
CITY SKY/WX TMP DP RH WIND PRES REMARKS
 
CAMARILLO CLEAR 66 57 72 CALM 29.74S  
NWS OXNARD N/A 65 55 70 W1 29.73S  
OXNARD AIRPORT CLEAR 65 60 84 CALM 29.74F  
*POINT MUGU CLEAR 62 61 96 W5 29.74F FOG  
SBA APT/GOLETA CLEAR 61 58 90 CALM 29.74S  
*SANTA BARBARA N/A 65 58 79 CALM 29.81S  
*VENTURA N/A 63 59 88 W1 N/A  
 

 
 
CAZ044-045-220900-  
VENTURA COUNTY VALLEYS  
 
 
CITY SKY/WX TMP DP RH WIND PRES REMARKS
 
*SIMI VALLEY N/A 67 51 56 CALM 29.68F  
*THOUSAND OAKS N/A 72 51 48 E1 29.75F  
*WESTLAKE VILL N/A 60 51 72 CALM 29.71F  
*OJAI N/A 60 55 83 CALM 29.68S  
 

 
 
CAZ053-220900-  
VENTURA COUNTY MOUNTAINS  
 
 
CITY SKY/WX TMP DP RH WIND PRES REMARKS
 
*LOCKWOOD VLY N/A 50 34 53 MISG N/A  
*FRAZIER MTN N/A 58 2 10 NW10 29.76F  
*ROSE VALLEY N/A 52 34 50 MISG N/A  
 

 
 
CAZ034-035-036-220900-  
CENTRAL COAST AND SANTA YNEZ VALLEY  
 
 
CITY SKY/WX TMP DP RH WIND PRES REMARKS
 
SAN LUIS OBISP CLEAR 61 55 81 W3 29.81F  
SANTA MARIA CLEAR 60 56 86 N10 29.82F  
 
CITY SKY/WX TMP DP RH WIND PRES REMARKS
 
*CAL POLY SLO N/A 64 57 77 SW3 N/A  
*LOMPOC MOCLDY 55 54 94 NW3 29.82F  
*PISMO BEACH N/A 61 51 70 SW1 29.81S  
*SANTA YNEZ FAIR 54 52 94 SW5 29.82S  
 

 
 
CAZ037-038-051-220900-  
SAN LUIS OBISPO COUNTY INTERIOR AND CUYAMA VALLEY  
 
 
CITY SKY/WX TMP DP RH WIND PRES REMARKS
 
*CUYAMA N/A 64 45 49 CALM 29.76F  
PASO ROBLES CLEAR 69 61 75 NW13 29.86F  
 

 
 
CAZ032-033-061-220900-  
SOUTHERN DESERTS  
 
 
CITY SKY/WX TMP DP RH WIND PRES REMARKS
 
BLYTHE CLEAR 93 36 13 S6 29.63F  
IMPERIAL CLEAR 86 38 18 W7 29.60S  
PALM SPRINGS CLEAR 89 49 25 CALM 29.66R  
THERMAL CLEAR 95 48 20 NW9 29.58S HX 91  
 

 
 
ELSEWHERE ACROSS THE WESTERN UNITED STATES AND MEXICO  
 
 
CITY SKY/WX TMP DP RH WIND PRES REMARKS
 
DEATH VALLEY, N/A 100 36 11 S2 N/A HX 95  
DENVER, CO PTCLDY 60 50 69 S8 30.13S  
GRAND CANYON, CLEAR 47 18 31 CALM 30.17S  
HONOLULU, HI PTCLDY 82 72 69 NE8 30.06  
KAHULUI, MAUI PTCLDY 81 70 69 NE16G24 30.06R  
LAKE TAHOE, CA PTCLDY 50 38 63 CALM 30.14S  
LAS VEGAS, NV MOCLDY 89 18 7 S7 29.71S  
MAMMOTH LAKES, FAIR 55 34 44 CALM 30.17S  
MEXICO CITY, M PTCLDY 61 52 72 SW3 30.34  
PHOENIX, AZ CLEAR 91 39 16 E8 29.68S  
PORTLAND, OR MOCLDY 60 52 74 NW10 30.03S  
RENO, NV MOCLDY 72 34 24 N8 30.02R  
SALT LAKE CITY PTCLDY 78 33 19 SE10 29.82F  
SAN DIEGO, CA CLOUDY 68 65 90 S5 29.80S  
SAN FRANCISCO, MOCLDY 66 63 90 W18 29.85S  
SAN JOSE, CA CLOUDY 70 70 100 N5 29.88S  
SEATTLE, WA CLOUDY 59 55 87 N7 30.01S  
TIJUANA, MEX MOCLDY 64 64 100 CALM 29.81 FOG  
 

 
 
STATION/POSITION TIME TEMP WIND PRES VSBY WAVE
 
AIR SEA DIR/SP/G HT/PER  
(UTC) (F) (DEG/KT/KT) (MB) (MI) (FT/S)  
WEST SANTA BARBA 0740 N/A 8/ 8  
EAST SANTA BARBA 0800 64 65 230/ 4/ 6 1007.3  
SANTA MONICA BAY 0800 67 CALM / 2 1007.4  
SAN CLEMENTE BAS 0800 66 67 250/ 6/ 8 1008.2  
 
CLICK HERE TO GO TO PREVIOUS BULLETINS.

The Nexlab CA Page Main Text Page